Lid_Strength_Index
3 3 3 3 3 3 3 3 3 3 3 2 2 2 2 2 2 5 9 5 3 -2 0 6 8 8 8 10 9 9 13 14 14 13 11 8 9 5 4 5 5 4 5 3 2
3 3 3 4 4 3 4 4 3 3 3 3 2 2 2 2 5 7 3 -2 -2 -2 8 9 9 8 10 10 10 11 13 13 11 10 10 9 9 7 6 6 6 5 3 2 3
4 4 4 4 4 4 4 4 4 3 3 3 3 2 2 3 8 5 -3 -3 -2 1 8 8 9 9 12 11 10 12 12 10 10 10 10 10 9 8 6 8 6 6 5 3 3
4 4 4 4 4 4 4 4 4 3 3 3 3 2 2 5 13 6 -3 -3 -2 4 7 9 10 11 10 13 11 13 10 9 9 8 11 10 9 9 7 6 4 4 4 4 4
4 4 4 4 4 4 4 4 4 4 4 3 2 2 5 9 7 4 -4 -2 2 5 7 9 11 12 12 12 10 11 10 9 10 10 11 9 9 9 9 4 5 4 4 4 4
4 4 4 4 4 4 4 4 4 4 4 3 1 3 7 11 6 2 1 0 3 7 7 8 9 9 11 11 12 10 10 9 10 10 11 11 9 9 8 4 5 5 5 4 4
4 4 4 4 4 4 4 4 4 4 3 2 1 3 6 9 5 4 4 2 3 5 7 6 7 8 10 10 10 9 10 9 9 9 9 9 9 9 7 4 5 6 5 4 4
4 4 4 4 4 4 4 4 4 4 3 2 2 4 9 4 5 6 5 6 5 4 5 5 6 8 10 10 9 11 12 14 10 9 8 9 11 9 8 8 5 5 5 4 4
4 4 5 5 4 4 5 5 4 3 3 2 5 6 7 2 6 5 6 7 6 5 5 3 7 9 9 12 14 13 15 13 11 9 9 10 11 9 8 9 8 5 5 5 4
4 5 5 5 4 5 5 5 4 2 2 2 3 7 5 5 5 5 6 6 6 6 7 7 9 11 12 13 16 14 14 13 13 10 10 11 11 9 8 8 7 8 5 5 5
4 4 5 5 5 5 6 8 9 9 6 6 5 6 4 3 3 5 5 6 6 7 10 9 11 13 11 11 10 11 12 12 11 9 10 12 10 9 8 9 9 9 9 6 5
4 4 4 5 5 5 8 7 8 8 11 7 6 6 4 4 6 5 5 8 9 11 9 10 12 9 8 8 9 10 12 12 10 9 10 11 11 9 9 9 9 8 8 9 5
4 4 4 5 5 7 8 7 7 7 11 8 7 7 7 6 7 6 6 8 9 11 11 11 9 7 8 9 9 11 11 11 11 10 10 11 12 11 7 9 8 8 8 7 8
4 4 5 5 8 9 8 6 7 6 12 8 7 6 7 7 8 5 5 7 9 10 10 10 8 8 9 9 9 12 9 9 9 11 14 10 15 12 10 10 9 8 8 9 7
5 4 5 5 10 9 6 6 7 6 16 6 7 5 7 8 7 6 5 6 9 9 10 11 10 10 10 9 8 10 8 9 9 12 14 13 15 13 11 11 10 7 8 7 6
4 5 5 8 10 8 7 8 7 11 15 7 7 8 9 7 7 7 7 6 6 9 9 10 8 9 10 8 8 7 9 11 12 13 16 14 14 14 12 11 8 7 6 6 6
5 5 6 7 10 8 8 8 12 14 7 8 8 8 9 8 8 8 9 10 11 13 12 10 10 8 8 10 9 10 13 16 16 16 17 13 14 14 10 8 8 8 8 6 5
5 6 8 7 8 8 8 10 15 10 9 7 8 9 10 8 8 8 10 11 9 10 12 13 13 9 7 10 11 12 12 15 18 17 16 12 14 12 8 7 7 7 7 7 6
6 10 8 6 7 8 9 14 12 10 7 8 8 10 11 9 9 9 10 11 9 9 12 13 12 8 7 8 9 11 13 11 14 14 16 15 12 9 8 7 7 7 7 6 6
11 11 9 5 6 8 11 12 10 7 7 7 11 9 11 10 10 11 10 7 8 7 9 10 13 9 7 8 9 11 10 14 15 17 18 15 13 13 10 9 8 8 8 7 6
11 9 6 5 6 10 14 13 9 6 6 8 10 10 10 10 10 11 9 8 7 7 7 10 11 11 9 11 11 11 12 13 14 14 17 17 15 10 10 8 8 8 7 6 6
11 11 5 6 12 12 13 10 8 7 6 6 8 9 10 10 11 10 9 8 6 6 9 9 11 13 11 8 8 10 11 13 16 16 15 15 15 8 9 8 8 8 7 7 8
11 10 6 6 14 14 10 7 6 8 8 8 9 8 8 10 12 10 9 7 6 7 10 10 12 15 13 10 9 10 10 11 12 14 15 16 15 9 7 7 7 7 8 8 6
11 11 9 9 10 11 11 9 8 7 8 8 9 9 10 11 10 10 9 6 6 6 4 7 11 13 16 13 11 12 10 11 13 15 14 14 12 9 9 9 8 8 7 6 6
11 11 9 12 10 11 11 9 9 9 8 8 10 9 11 13 11 11 9 8 7 6 7 10 13 11 10 9 9 10 10 10 12 13 15 13 12 11 10 9 8 7 6 6 6
12 11 10 10 9 11 11 11 9 8 8 8 10 8 9 11 10 11 9 10 10 8 9 9 12 11 12 10 10 11 10 9 9 9 12 12 12 10 8 7 7 7 6 7 6
10 9 10 11 11 11 11 9 7 7 7 7 7 9 9 8 7 9 8 9 10 11 11 11 12 13 15 11 11 14 11 10 10 10 10 14 11 9 8 8 8 9 8 9 8